M I D A S
Marine Information and Data Acquisition System
Tripno 1503 of the Zeeleeuw from 2008-06-13 04:43:49 to 2008-06-13 13:35:45
Back to CruiseResearch ActivitiesStationsMapUnderway DataData graphs

EquipmentUnitsComments
TimeDGPSUTC
LatitudeDGPSDM.mWGS84
LongitudeDGPSDM.mWGS84
SpeedMeteo Stationm/sRelative wind speed
DirectionMeteo StationdegRelative wind direction
TemperatureMeteo Stationdeg CelciusAir temperature
PressureMeteo StationPaAtmospheric pressure
HumidityMeteo Station%Relative humidity
Missing or incorrect values are displayed as -999
Metereological data collected by the RV Zeeleeuw from 2008-06-13 04:12:45 to 2008-06-13 13:36:31
                                                                                    Next 1000 lines
Time Latitude Longitude Speed Direction Temperature Pressure Humidity
2008-06-13 04:12:55 51°13.623 2°56.044 -999 -999 -999 -999 -999
2008-06-13 04:12:59 51°13.623 2°56.042 -999 -999 -999 -999 -999
2008-06-13 04:13:05 51°13.625 2°56.037 -999 -999 -999 -999 -999
2008-06-13 04:13:09 51°13.626 2°56.034 -999 -999 -999 -999 -999
2008-06-13 04:13:15 51°13.627 2°56.029 -999 -999 -999 -999 -999
2008-06-13 04:13:19 51°13.628 2°56.025 -999 -999 -999 -999 -999
2008-06-13 04:13:25 51°13.63 2°56.019 -999 -999 -999 -999 -999
2008-06-13 04:13:29 51°13.631 2°56.014 -999 -999 -999 -999 -999
2008-06-13 04:13:35 51°13.634 2°56.007 -999 -999 -999 -999 -999
2008-06-13 04:13:39 51°13.635 2°56.002 -999 -999 -999 -999 -999
2008-06-13 04:13:45 51°13.638 2°55.994 -999 -999 -999 -999 -999
2008-06-13 04:13:50 51°13.64 2°55.986 -999 -999 -999 -999 -999
2008-06-13 04:13:55 51°13.642 2°55.978 -999 -999 -999 -999 -999
2008-06-13 04:13:59 51°13.644 2°55.972 -999 -999 -999 -999 -999
2008-06-13 04:14:05 51°13.647 2°55.961 -999 -999 -999 -999 -999
2008-06-13 04:14:09 51°13.648 2°55.954 -999 -999 -999 -999 -999
2008-06-13 04:14:15 51°13.651 2°55.943 -999 -999 -999 -999 -999
2008-06-13 04:14:19 51°13.652 2°55.936 -999 -999 -999 -999 -999
2008-06-13 04:14:25 51°13.655 2°55.925 -999 -999 -999 -999 -999
2008-06-13 04:14:29 51°13.657 2°55.917 -999 -999 -999 -999 -999
2008-06-13 04:14:35 51°13.659 2°55.906 -999 -999 -999 -999 -999
2008-06-13 04:14:39 51°13.661 2°55.898 -999 -999 -999 -999 -999
2008-06-13 04:14:45 51°13.664 2°55.887 -999 -999 -999 -999 -999
2008-06-13 04:14:49 51°13.666 2°55.88 -999 -999 -999 -999 -999
2008-06-13 04:14:55 51°13.669 2°55.869 -999 -999 -999 -999 -999
2008-06-13 04:14:59 51°13.671 2°55.862 -999 -999 -999 -999 -999
2008-06-13 04:15:04 51°13.674 2°55.853 -999 -999 -999 -999 -999
2008-06-13 04:15:09 51°13.676 2°55.843 -999 -999 -999 -999 -999
2008-06-13 04:15:15 51°13.679 2°55.832 -999 -999 -999 -999 -999
2008-06-13 04:15:19 51°13.681 2°55.824 -999 -999 -999 -999 -999
2008-06-13 04:15:25 51°13.684 2°55.813 -999 -999 -999 -999 -999
2008-06-13 04:15:29 51°13.686 2°55.805 -999 -999 -999 -999 -999
2008-06-13 04:15:35 51°13.69 2°55.794 -999 -999 -999 -999 -999
2008-06-13 04:15:39 51°13.692 2°55.786 -999 -999 -999 -999 -999
2008-06-13 04:15:45 51°13.694 2°55.776 -999 -999 -999 -999 -999
2008-06-13 04:15:49 51°13.696 2°55.77 -999 -999 -999 -999 -999
2008-06-13 04:15:55 51°13.698 2°55.762 -999 -999 -999 -999 -999
2008-06-13 04:15:59 51°13.699 2°55.758 -999 -999 -999 -999 -999
2008-06-13 04:16:03 51°13.699 2°55.756 -999 -999 -999 -999 -999
2008-06-13 04:16:09 51°13.7 2°55.755 -999 -999 -999 -999 -999
2008-06-13 04:16:15 51°13.7 2°55.757 -999 -999 -999 -999 -999
2008-06-13 04:16:19 51°13.699 2°55.758 -999 -999 -999 -999 -999
2008-06-13 04:16:23 51°13.7 2°55.759 -999 -999 -999 -999 -999
2008-06-13 04:16:29 51°13.699 2°55.76 -999 -999 -999 -999 -999
2008-06-13 04:16:35 51°13.699 2°55.76 -999 -999 -999 -999 -999
2008-06-13 04:16:39 51°13.699 2°55.758 -999 -999 -999 -999 -999
2008-06-13 04:16:43 51°13.699 2°55.757 -999 -999 -999 -999 -999
2008-06-13 04:16:49 51°13.698 2°55.753 -999 -999 -999 -999 -999
2008-06-13 04:16:55 51°13.698 2°55.748 -999 -999 -999 -999 -999
2008-06-13 04:16:59 51°13.697 2°55.745 -999 -999 -999 -999 -999
2008-06-13 04:17:05 51°13.697 2°55.74 -999 -999 -999 -999 -999
2008-06-13 04:17:09 51°13.696 2°55.737 -999 -999 -999 -999 -999
2008-06-13 04:17:15 51°13.695 2°55.733 -999 -999 -999 -999 -999
2008-06-13 04:17:19 51°13.695 2°55.731 -999 -999 -999 -999 -999
2008-06-13 04:17:25 51°13.694 2°55.73 -999 -999 -999 -999 -999
2008-06-13 04:17:30 51°13.695 2°55.731 -999 -999 -999 -999 -999
2008-06-13 04:17:35 51°13.696 2°55.734 -999 -999 -999 -999 -999
2008-06-13 04:17:39 51°13.697 2°55.736 -999 -999 -999 -999 -999
2008-06-13 04:17:45 51°13.699 2°55.74 -999 -999 -999 -999 -999
2008-06-13 04:17:49 51°13.7 2°55.742 -999 -999 -999 -999 -999
2008-06-13 04:17:55 51°13.702 2°55.745 -999 -999 -999 -999 -999
2008-06-13 04:17:59 51°13.702 2°55.746 -999 -999 -999 -999 -999
2008-06-13 04:18:03 51°13.703 2°55.747 -999 -999 -999 -999 -999
2008-06-13 04:18:09 51°13.702 2°55.747 -999 -999 -999 -999 -999
2008-06-13 04:18:15 51°13.7 2°55.747 -999 -999 -999 -999 -999
2008-06-13 04:18:19 51°13.699 2°55.746 -999 -999 -999 -999 -999
2008-06-13 04:18:23 51°13.697 2°55.745 -999 -999 -999 -999 -999
2008-06-13 04:18:29 51°13.694 2°55.743 -999 -999 -999 -999 -999
2008-06-13 04:18:35 51°13.691 2°55.741 -999 -999 -999 -999 -999
2008-06-13 04:18:39 51°13.689 2°55.74 -999 -999 -999 -999 -999
2008-06-13 04:18:45 51°13.686 2°55.738 -999 -999 -999 -999 -999
2008-06-13 04:18:49 51°13.685 2°55.737 -999 -999 -999 -999 -999
2008-06-13 04:18:55 51°13.685 2°55.738 -999 -999 -999 -999 -999
2008-06-13 04:18:59 51°13.686 2°55.738 -999 -999 -999 -999 -999
2008-06-13 04:19:05 51°13.688 2°55.739 -999 -999 -999 -999 -999
2008-06-13 04:19:09 51°13.691 2°55.739 -999 -999 -999 -999 -999
2008-06-13 04:19:15 51°13.696 2°55.738 -999 -999 -999 -999 -999
2008-06-13 04:19:19 51°13.699 2°55.737 -999 -999 -999 -999 -999
2008-06-13 04:19:25 51°13.705 2°55.734 -999 -999 -999 -999 -999
2008-06-13 04:19:29 51°13.708 2°55.732 -999 -999 -999 -999 -999
2008-06-13 04:19:35 51°13.714 2°55.728 -999 -999 -999 -999 -999
2008-06-13 04:19:39 51°13.719 2°55.724 -999 -999 -999 -999 -999
2008-06-13 04:19:45 51°13.726 2°55.719 -999 -999 -999 -999 -999
2008-06-13 04:19:49 51°13.731 2°55.714 -999 -999 -999 -999 -999
2008-06-13 04:19:55 51°13.739 2°55.708 -999 -999 -999 -999 -999
2008-06-13 04:19:59 51°13.745 2°55.703 -999 -999 -999 -999 -999
2008-06-13 04:20:05 51°13.754 2°55.695 -999 -999 -999 -999 -999
2008-06-13 04:20:09 51°13.76 2°55.69 -999 -999 -999 -999 -999
2008-06-13 04:20:15 51°13.77 2°55.682 -999 -999 -999 -999 -999
2008-06-13 04:20:19 51°13.776 2°55.677 -999 -999 -999 -999 -999
2008-06-13 04:20:25 51°13.787 2°55.669 -999 -999 -999 -999 -999
2008-06-13 04:20:29 51°13.793 2°55.663 -999 -999 -999 -999 -999
2008-06-13 04:20:35 51°13.804 2°55.654 -999 -999 -999 -999 -999
2008-06-13 04:20:39 51°13.811 2°55.648 -999 -999 -999 -999 -999
2008-06-13 04:20:43 51°13.818 2°55.643 -999 -999 -999 -999 -999
2008-06-13 04:20:49 51°13.829 2°55.634 -999 -999 -999 -999 -999
2008-06-13 04:20:55 51°13.84 2°55.625 -999 -999 -999 -999 -999
2008-06-13 04:20:59 51°13.848 2°55.619 -999 -999 -999 -999 -999
2008-06-13 04:21:03 51°13.855 2°55.613 -999 -999 -999 -999 -999
2008-06-13 04:21:09 51°13.866 2°55.604 -999 -999 -999 -999 -999
2008-06-13 04:21:15 51°13.877 2°55.595 -999 -999 -999 -999 -999
2008-06-13 04:21:19 51°13.885 2°55.589 -999 -999 -999 -999 -999
2008-06-13 04:21:25 51°13.897 2°55.579 -999 -999 -999 -999 -999
2008-06-13 04:21:29 51°13.905 2°55.574 -999 -999 -999 -999 -999
2008-06-13 04:21:35 51°13.917 2°55.564 -999 -999 -999 -999 -999
2008-06-13 04:21:39 51°13.926 2°55.557 -999 -999 -999 -999 -999
2008-06-13 04:21:43 51°13.935 2°55.551 -999 -999 -999 -999 -999
2008-06-13 04:21:49 51°13.949 2°55.541 -999 -999 -999 -999 -999
2008-06-13 04:21:55 51°13.963 2°55.53 -999 -999 -999 -999 -999
2008-06-13 04:21:59 51°13.972 2°55.523 -999 -999 -999 -999 -999
2008-06-13 04:22:05 51°13.986 2°55.512 -999 -999 -999 -999 -999
2008-06-13 04:22:09 51°13.996 2°55.505 -999 -999 -999 -999 -999
2008-06-13 04:22:15 51°14.01 2°55.494 -999 -999 -999 -999 -999
2008-06-13 04:22:19 51°14.02 2°55.488 -999 -999 -999 -999 -999
2008-06-13 04:22:25 51°14.035 2°55.477 -999 -999 -999 -999 -999
2008-06-13 04:22:29 51°14.044 2°55.47 -999 -999 -999 -999 -999
2008-06-13 04:22:35 51°14.059 2°55.458 -999 -999 -999 -999 -999
2008-06-13 04:22:39 51°14.069 2°55.451 -999 -999 -999 -999 -999
2008-06-13 04:22:43 51°14.079 2°55.444 -999 -999 -999 -999 -999
2008-06-13 04:22:49 51°14.094 2°55.433 -999 -999 -999 -999 -999
2008-06-13 04:22:55 51°14.108 2°55.421 -999 -999 -999 -999 -999
2008-06-13 04:22:59 51°14.118 2°55.413 -999 -999 -999 -999 -999
2008-06-13 04:23:03 51°14.128 2°55.405 -999 -999 -999 -999 -999
2008-06-13 04:23:09 51°14.142 2°55.392 -999 -999 -999 -999 -999
2008-06-13 04:23:15 51°14.156 2°55.38 -999 -999 -999 -999 -999
2008-06-13 04:23:19 51°14.166 2°55.371 -999 -999 -999 -999 -999
2008-06-13 04:23:25 51°14.18 2°55.358 -999 -999 -999 -999 -999
2008-06-13 04:23:29 51°14.19 2°55.348 -999 -999 -999 -999 -999
2008-06-13 04:23:35 51°14.204 2°55.332 -999 -999 -999 -999 -999
2008-06-13 04:23:39 51°14.213 2°55.322 -999 -999 -999 -999 -999
2008-06-13 04:23:45 51°14.227 2°55.304 -999 -999 -999 -999 -999
2008-06-13 04:23:49 51°14.236 2°55.292 -999 -999 -999 -999 -999
2008-06-13 04:23:55 51°14.249 2°55.272 -999 -999 -999 -999 -999
2008-06-13 04:23:59 51°14.258 2°55.258 -999 -999 -999 -999 -999
2008-06-13 04:24:05 51°14.27 2°55.236 -999 -999 -999 -999 -999
2008-06-13 04:24:09 51°14.279 2°55.222 -999 -999 -999 -999 -999
2008-06-13 04:24:15 51°14.291 2°55.199 -999 -999 -999 -999 -999
2008-06-13 04:24:19 51°14.299 2°55.184 -999 -999 -999 -999 -999
2008-06-13 04:24:25 51°14.312 2°55.161 -999 -999 -999 -999 -999
2008-06-13 04:24:30 51°14.323 2°55.143 -999 -999 -999 -999 -999
2008-06-13 04:24:35 51°14.334 2°55.125 -999 -999 -999 -999 -999
2008-06-13 04:24:39 51°14.343 2°55.109 -999 -999 -999 -999 -999
2008-06-13 04:24:45 51°14.355 2°55.087 -999 -999 -999 -999 -999
2008-06-13 04:24:50 51°14.366 2°55.068 -999 -999 -999 -999 -999
2008-06-13 04:24:55 51°14.377 2°55.051 -999 -999 -999 -999 -999
2008-06-13 04:24:59 51°14.387 2°55.037 -999 -999 -999 -999 -999
2008-06-13 04:25:03 51°14.396 2°55.022 -999 -999 -999 -999 -999
2008-06-13 04:25:10 51°14.412 2°54.997 -999 -999 -999 -999 -999
2008-06-13 04:25:15 51°14.423 2°54.978 -999 -999 -999 -999 -999
2008-06-13 04:25:19 51°14.432 2°54.964 -999 -999 -999 -999 -999
2008-06-13 04:25:24 51°14.445 2°54.945 -999 -999 -999 -999 -999
2008-06-13 04:25:30 51°14.459 2°54.923 -999 -999 -999 -999 -999
2008-06-13 04:25:35 51°14.471 2°54.906 -999 -999 -999 -999 -999
2008-06-13 04:25:39 51°14.481 2°54.892 -999 -999 -999 -999 -999
2008-06-13 04:25:43 51°14.491 2°54.878 -999 -999 -999 -999 -999
2008-06-13 04:25:49 51°14.505 2°54.856 -999 -999 -999 -999 -999
2008-06-13 04:25:55 51°14.518 2°54.833 -999 -999 -999 -999 -999
2008-06-13 04:25:59 51°14.527 2°54.818 -999 -999 -999 -999 -999
2008-06-13 04:26:05 51°14.541 2°54.796 -999 -999 -999 -999 -999
2008-06-13 04:26:10 51°14.552 2°54.777 -999 -999 -999 -999 -999
2008-06-13 04:26:15 51°14.563 2°54.758 -999 -999 -999 -999 -999
2008-06-13 04:26:19 51°14.572 2°54.742 -999 -999 -999 -999 -999
2008-06-13 04:26:25 51°14.583 2°54.717 -999 -999 -999 -999 -999
2008-06-13 04:26:30 51°14.592 2°54.696 -999 -999 -999 -999 -999
2008-06-13 04:26:35 51°14.602 2°54.674 -999 -999 -999 -999 -999
2008-06-13 04:26:39 51°14.609 2°54.656 -999 -999 -999 -999 -999
2008-06-13 04:26:45 51°14.62 2°54.63 -999 -999 -999 -999 -999
2008-06-13 04:26:49 51°14.627 2°54.613 -999 -999 -999 -999 -999
2008-06-13 04:26:55 51°14.638 2°54.588 -999 -999 -999 -999 -999
2008-06-13 04:26:59 51°14.645 2°54.571 -999 -999 -999 -999 -999
2008-06-13 04:27:05 51°14.657 2°54.545 -999 -999 -999 -999 -999
2008-06-13 04:27:10 51°14.666 2°54.524 -999 -999 -999 -999 -999
2008-06-13 04:27:15 51°14.675 2°54.502 -999 -999 -999 -999 -999
2008-06-13 04:27:19 51°14.682 2°54.485 -999 -999 -999 -999 -999
2008-06-13 04:27:23 51°14.689 2°54.467 -999 -999 -999 -999 -999
2008-06-13 04:27:29 51°14.698 2°54.439 -999 -999 -999 -999 -999
2008-06-13 04:27:35 51°14.705 2°54.41 -999 -999 -999 -999 -999
2008-06-13 04:27:39 51°14.71 2°54.391 -999 -999 -999 -999 -999
2008-06-13 04:27:43 51°14.715 2°54.371 -999 -999 -999 -999 -999
2008-06-13 04:27:49 51°14.721 2°54.342 -999 -999 -999 -999 -999
2008-06-13 04:27:55 51°14.726 2°54.311 -999 -999 -999 -999 -999
2008-06-13 04:27:59 51°14.729 2°54.29 -999 -999 -999 -999 -999
2008-06-13 04:28:03 51°14.731 2°54.269 -999 -999 -999 -999 -999
2008-06-13 04:28:09 51°14.734 2°54.238 -999 -999 -999 -999 -999
2008-06-13 04:28:15 51°14.736 2°54.205 -999 -999 -999 -999 -999
2008-06-13 04:28:19 51°14.738 2°54.184 -999 -999 -999 -999 -999
2008-06-13 04:28:25 51°14.739 2°54.152 -999 -999 -999 -999 -999
2008-06-13 04:28:30 51°14.741 2°54.125 -999 -999 -999 -999 -999
2008-06-13 04:28:35 51°14.742 2°54.098 -999 -999 -999 -999 -999
2008-06-13 04:28:39 51°14.743 2°54.076 -999 -999 -999 -999 -999
2008-06-13 04:28:45 51°14.745 2°54.044 -999 -999 -999 -999 -999
2008-06-13 04:28:50 51°14.745 2°54.017 -999 -999 -999 -999 -999
2008-06-13 04:28:55 51°14.746 2°53.99 -999 -999 -999 -999 -999
2008-06-13 04:28:59 51°14.747 2°53.968 -999 -999 -999 -999 -999
2008-06-13 04:29:05 51°14.748 2°53.936 -999 -999 -999 -999 -999
2008-06-13 04:29:10 51°14.75 2°53.909 -999 -999 -999 -999 -999
2008-06-13 04:29:15 51°14.752 2°53.882 -999 -999 -999 -999 -999
2008-06-13 04:29:19 51°14.754 2°53.861 -999 -999 -999 -999 -999
2008-06-13 04:29:25 51°14.756 2°53.829 -999 -999 -999 -999 -999
2008-06-13 04:29:29 51°14.758 2°53.807 -999 -999 -999 -999 -999
2008-06-13 04:29:35 51°14.76 2°53.775 -999 -999 -999 -999 -999
2008-06-13 04:29:39 51°14.761 2°53.754 -999 -999 -999 -999 -999
2008-06-13 04:29:43 51°14.763 2°53.733 -999 -999 -999 -999 -999
2008-06-13 04:29:49 51°14.767 2°53.701 -999 -999 -999 -999 -999
2008-06-13 04:29:55 51°14.769 2°53.669 -999 -999 -999 -999 -999
2008-06-13 04:29:59 51°14.772 2°53.648 -999 -999 -999 -999 -999
2008-06-13 04:30:03 51°14.774 2°53.626 -999 -999 -999 -999 -999
2008-06-13 04:30:10 51°14.777 2°53.59 -999 -999 -999 -999 -999
2008-06-13 04:30:15 51°14.78 2°53.563 -999 -999 -999 -999 -999
2008-06-13 04:30:19 51°14.782 2°53.542 -999 -999 -999 -999 -999
2008-06-13 04:30:25 51°14.785 2°53.51 -999 -999 -999 -999 -999
2008-06-13 04:30:30 51°14.788 2°53.484 -999 -999 -999 -999 -999
2008-06-13 04:30:35 51°14.791 2°53.458 -999 -999 -999 -999 -999
2008-06-13 04:30:39 51°14.793 2°53.437 -999 -999 -999 -999 -999
2008-06-13 04:30:45 51°14.796 2°53.405 -999 -999 -999 -999 -999
2008-06-13 04:30:50 51°14.798 2°53.378 -999 -999 -999 -999 -999
2008-06-13 04:30:55 51°14.8 2°53.352 -999 -999 -999 -999 -999
2008-06-13 04:30:59 51°14.802 2°53.331 -999 -999 -999 -999 -999
2008-06-13 04:31:05 51°14.804 2°53.298 -999 -999 -999 -999 -999
2008-06-13 04:31:09 51°14.805 2°53.277 -999 -999 -999 -999 -999
2008-06-13 04:31:15 51°14.808 2°53.245 -999 -999 -999 -999 -999
2008-06-13 04:31:19 51°14.809 2°53.223 -999 -999 -999 -999 -999
2008-06-13 04:31:25 51°14.811 2°53.191 -999 -999 -999 -999 -999
2008-06-13 04:31:30 51°14.813 2°53.164 -999 -999 -999 -999 -999
2008-06-13 04:31:35 51°14.815 2°53.138 -999 -999 -999 -999 -999
2008-06-13 04:31:39 51°14.816 2°53.116 -999 -999 -999 -999 -999
2008-06-13 04:31:43 51°14.817 2°53.095 -999 -999 -999 -999 -999
2008-06-13 04:31:49 51°14.819 2°53.062 -999 -999 -999 -999 -999
2008-06-13 04:31:55 51°14.821 2°53.03 -999 -999 -999 -999 -999
2008-06-13 04:31:59 51°14.823 2°53.009 -999 -999 -999 -999 -999
2008-06-13 04:32:03 51°14.824 2°52.987 -999 -999 -999 -999 -999
2008-06-13 04:32:09 51°14.826 2°52.956 -999 -999 -999 -999 -999
2008-06-13 04:32:15 51°14.828 2°52.923 -999 -999 -999 -999 -999
2008-06-13 04:32:19 51°14.83 2°52.902 -999 -999 -999 -999 -999
2008-06-13 04:32:23 51°14.832 2°52.881 -999 -999 -999 -999 -999
2008-06-13 04:32:29 51°14.834 2°52.849 -999 -999 -999 -999 -999
2008-06-13 04:32:35 51°14.836 2°52.817 -999 -999 -999 -999 -999
2008-06-13 04:32:39 51°14.837 2°52.796 -999 -999 -999 -999 -999
2008-06-13 04:32:43 51°14.838 2°52.774 -999 -999 -999 -999 -999
2008-06-13 04:32:49 51°14.84 2°52.742 -999 -999 -999 -999 -999
2008-06-13 04:32:55 51°14.841 2°52.71 -999 -999 -999 -999 -999
2008-06-13 04:32:59 51°14.843 2°52.688 -999 -999 -999 -999 -999
2008-06-13 04:33:05 51°14.844 2°52.656 -999 -999 -999 -999 -999
2008-06-13 04:33:09 51°14.846 2°52.635 -999 -999 -999 -999 -999
2008-06-13 04:33:15 51°14.847 2°52.602 -999 -999 -999 -999 -999
2008-06-13 04:33:19 51°14.849 2°52.581 -999 -999 -999 -999 -999
2008-06-13 04:33:25 51°14.851 2°52.549 -999 -999 -999 -999 -999
2008-06-13 04:33:29 51°14.852 2°52.528 -999 -999 -999 -999 -999
2008-06-13 04:33:35 51°14.854 2°52.495 -999 -999 -999 -999 -999
2008-06-13 04:33:39 51°14.856 2°52.474 -999 -999 -999 -999 -999
2008-06-13 04:33:45 51°14.858 2°52.442 -999 -999 -999 -999 -999
2008-06-13 04:33:50 51°14.86 2°52.415 -999 -999 -999 -999 -999
2008-06-13 04:33:55 51°14.862 2°52.389 -999 -999 -999 -999 -999
2008-06-13 04:33:59 51°14.863 2°52.367 -999 -999 -999 -999 -999
2008-06-13 04:34:05 51°14.866 2°52.335 -999 -999 -999 -999 -999
2008-06-13 04:34:10 51°14.868 2°52.308 -999 -999 -999 -999 -999
2008-06-13 04:34:15 51°14.869 2°52.281 -999 -999 -999 -999 -999
2008-06-13 04:34:19 51°14.871 2°52.26 -999 -999 -999 -999 -999
2008-06-13 04:34:23 51°14.871 2°52.238 -999 -999 -999 -999 -999
2008-06-13 04:34:30 51°14.873 2°52.2 -999 -999 -999 -999 -999
2008-06-13 04:34:35 51°14.873 2°52.173 -999 -999 -999 -999 -999
2008-06-13 04:34:39 51°14.874 2°52.152 -999 -999 -999 -999 -999
2008-06-13 04:34:43 51°14.874 2°52.131 -999 -999 -999 -999 -999
2008-06-13 04:34:50 51°14.875 2°52.093 -999 -999 -999 -999 -999
2008-06-13 04:34:55 51°14.877 2°52.067 -999 -999 -999 -999 -999
2008-06-13 04:34:59 51°14.876 2°52.044 -999 -999 -999 -999 -999
2008-06-13 04:35:05 51°14.878 2°52.011 -999 -999 -999 -999 -999
2008-06-13 04:35:10 51°14.878 2°51.984 -999 -999 -999 -999 -999
2008-06-13 04:35:15 51°14.879 2°51.957 -999 -999 -999 -999 -999
2008-06-13 04:35:19 51°14.879 2°51.936 -999 -999 -999 -999 -999
2008-06-13 04:35:25 51°14.88 2°51.903 -999 -999 -999 -999 -999
2008-06-13 04:35:30 51°14.88 2°51.876 -999 -999 -999 -999 -999
2008-06-13 04:35:35 51°14.88 2°51.849 -999 -999 -999 -999 -999
2008-06-13 04:35:39 51°14.88 2°51.827 -999 -999 -999 -999 -999
2008-06-13 04:35:45 51°14.881 2°51.794 -999 -999 -999 -999 -999
2008-06-13 04:35:50 51°14.881 2°51.767 -999 -999 -999 -999 -999
2008-06-13 04:35:55 51°14.881 2°51.739 -999 -999 -999 -999 -999
2008-06-13 04:35:59 51°14.881 2°51.717 -999 -999 -999 -999 -999
2008-06-13 04:36:05 51°14.881 2°51.685 -999 -999 -999 -999 -999
2008-06-13 04:36:10 51°14.881 2°51.657 -999 -999 -999 -999 -999
2008-06-13 04:36:15 51°14.881 2°51.629 -999 -999 -999 -999 -999
2008-06-13 04:36:19 51°14.881 2°51.608 -999 -999 -999 -999 -999
2008-06-13 04:36:25 51°14.881 2°51.575 -999 -999 -999 -999 -999
2008-06-13 04:36:30 51°14.881 2°51.547 -999 -999 -999 -999 -999
2008-06-13 04:36:35 51°14.881 2°51.52 -999 -999 -999 -999 -999
2008-06-13 04:36:39 51°14.881 2°51.498 -999 -999 -999 -999 -999
2008-06-13 04:36:43 51°14.881 2°51.476 -999 -999 -999 -999 -999
2008-06-13 04:36:50 51°14.882 2°51.438 -999 -999 -999 -999 -999
2008-06-13 04:36:55 51°14.882 2°51.41 -999 -999 -999 -999 -999
2008-06-13 04:36:59 51°14.882 2°51.388 -999 -999 -999 -999 -999
2008-06-13 04:37:03 51°14.882 2°51.366 -999 -999 -999 -999 -999
2008-06-13 04:37:10 51°14.883 2°51.327 -999 -999 -999 -999 -999
2008-06-13 04:37:15 51°14.883 2°51.299 -999 -999 -999 -999 -999
2008-06-13 04:37:19 51°14.884 2°51.277 -999 -999 -999 -999 -999
2008-06-13 04:37:25 51°14.884 2°51.244 -999 -999 -999 -999 -999
2008-06-13 04:37:30 51°14.884 2°51.216 -999 -999 -999 -999 -999
2008-06-13 04:37:35 51°14.885 2°51.189 -999 -999 -999 -999 -999
2008-06-13 04:37:39 51°14.885 2°51.167 -999 -999 -999 -999 -999
2008-06-13 04:37:43 51°14.886 2°51.145 -999 -999 -999 -999 -999
2008-06-13 04:37:50 51°14.886 2°51.106 -999 -999 -999 -999 -999
2008-06-13 04:37:55 51°14.886 2°51.079 -999 -999 -999 -999 -999
2008-06-13 04:37:59 51°14.886 2°51.057 -999 -999 -999 -999 -999
2008-06-13 04:38:05 51°14.887 2°51.024 -999 -999 -999 -999 -999
2008-06-13 04:38:10 51°14.888 2°50.997 -999 -999 -999 -999 -999
2008-06-13 04:38:15 51°14.888 2°50.969 -999 -999 -999 -999 -999
2008-06-13 04:38:19 51°14.889 2°50.947 -999 -999 -999 -999 -999
2008-06-13 04:38:25 51°14.889 2°50.914 -999 -999 -999 -999 -999
2008-06-13 04:38:30 51°14.89 2°50.886 -999 -999 -999 -999 -999
2008-06-13 04:38:35 51°14.89 2°50.859 -999 -999 -999 -999 -999
2008-06-13 04:38:39 51°14.89 2°50.837 -999 -999 -999 -999 -999
2008-06-13 04:38:43 51°14.891 2°50.815 -999 -999 -999 -999 -999
2008-06-13 04:38:50 51°14.892 2°50.776 -999 -999 -999 -999 -999
2008-06-13 04:38:55 51°14.893 2°50.748 -999 -999 -999 -999 -999
2008-06-13 04:38:59 51°14.892 2°50.727 -999 -999 -999 -999 -999
2008-06-13 04:39:03 51°14.893 2°50.705 -999 -999 -999 -999 -999
2008-06-13 04:39:10 51°14.894 2°50.666 -999 -999 -999 -999 -999
2008-06-13 04:39:15 51°14.894 2°50.638 -999 -999 -999 -999 -999
2008-06-13 04:39:19 51°14.895 2°50.616 -999 -999 -999 -999 -999
2008-06-13 04:39:25 51°14.894 2°50.583 -999 -999 -999 -999 -999
2008-06-13 04:39:30 51°14.894 2°50.555 -999 -999 -999 -999 -999
2008-06-13 04:39:35 51°14.895 2°50.528 -999 -999 -999 -999 -999
2008-06-13 04:39:39 51°14.895 2°50.505 -999 -999 -999 -999 -999
2008-06-13 04:39:43 51°14.895 2°50.483 -999 -999 -999 -999 -999
2008-06-13 04:39:50 51°14.895 2°50.445 -999 -999 -999 -999 -999
2008-06-13 04:39:55 51°14.895 2°50.417 -999 -999 -999 -999 -999
2008-06-13 04:39:59 51°14.896 2°50.395 -999 -999 -999 -999 -999
2008-06-13 04:40:05 51°14.896 2°50.361 -999 -999 -999 -999 -999
2008-06-13 04:40:10 51°14.895 2°50.334 -999 -999 -999 -999 -999
2008-06-13 04:40:15 51°14.895 2°50.306 -999 -999 -999 -999 -999
2008-06-13 04:40:19 51°14.896 2°50.285 -999 -999 -999 -999 -999
2008-06-13 04:40:25 51°14.897 2°50.252 -999 -999 -999 -999 -999
2008-06-13 04:40:30 51°14.897 2°50.224 -999 -999 -999 -999 -999
2008-06-13 04:40:35 51°14.898 2°50.196 -999 -999 -999 -999 -999
2008-06-13 04:40:39 51°14.898 2°50.175 -999 -999 -999 -999 -999
2008-06-13 04:40:45 51°14.899 2°50.141 -999 -999 -999 -999 -999
2008-06-13 04:40:50 51°14.899 2°50.114 -999 -999 -999 -999 -999
2008-06-13 04:40:55 51°14.901 2°50.086 -999 -999 -999 -999 -999
2008-06-13 04:40:59 51°14.901 2°50.063 -999 -999 -999 -999 -999
2008-06-13 04:41:05 51°14.901 2°50.03 -999 -999 -999 -999 -999
2008-06-13 04:41:10 51°14.902 2°50.002 -999 -999 -999 -999 -999
2008-06-13 04:41:15 51°14.902 2°49.974 -999 -999 -999 -999 -999
2008-06-13 04:41:19 51°14.902 2°49.952 -999 -999 -999 -999 -999
2008-06-13 04:41:23 51°14.903 2°49.93 -999 -999 -999 -999 -999
2008-06-13 04:41:30 51°14.903 2°49.891 -999 -999 -999 -999 -999
2008-06-13 04:41:35 51°14.904 2°49.864 -999 -999 -999 -999 -999
2008-06-13 04:41:39 51°14.904 2°49.842 -999 -999 -999 -999 -999
2008-06-13 04:41:43 51°14.905 2°49.82 -999 -999 -999 -999 -999
2008-06-13 04:41:50 51°14.904 2°49.781 -999 -999 -999 -999 -999
2008-06-13 04:41:55 51°14.904 2°49.754 -999 -999 -999 -999 -999
2008-06-13 04:41:59 51°14.905 2°49.732 -999 -999 -999 -999 -999
2008-06-13 04:42:03 51°14.906 2°49.71 -999 -999 -999 -999 -999
2008-06-13 04:42:10 51°14.906 2°49.672 -999 -999 -999 -999 -999
2008-06-13 04:42:15 51°14.906 2°49.645 -999 -999 -999 -999 -999
2008-06-13 04:42:19 51°14.907 2°49.623 -999 -999 -999 -999 -999
2008-06-13 04:42:25 51°14.907 2°49.59 -999 -999 -999 -999 -999
2008-06-13 04:42:30 51°14.908 2°49.563 -999 -999 -999 -999 -999
2008-06-13 04:42:35 51°14.908 2°49.535 -999 -999 -999 -999 -999
2008-06-13 04:42:39 51°14.909 2°49.513 -999 -999 -999 -999 -999
2008-06-13 04:42:45 51°14.908 2°49.479 -999 -999 -999 -999 -999
2008-06-13 04:42:50 51°14.911 2°49.453 -999 -999 -999 -999 -999
2008-06-13 04:42:55 51°14.91 2°49.425 -999 -999 -999 -999 -999
2008-06-13 04:42:59 51°14.91 2°49.403 -999 -999 -999 -999 -999
2008-06-13 04:43:05 51°14.91 2°49.371 -999 -999 -999 -999 -999
2008-06-13 04:43:10 51°14.911 2°49.344 -999 -999 -999 -999 -999
2008-06-13 04:43:15 51°14.912 2°49.317 -999 -999 -999 -999 -999
2008-06-13 04:43:19 51°14.912 2°49.295 -999 -999 -999 -999 -999
2008-06-13 04:43:25 51°14.912 2°49.263 -999 -999 -999 -999 -999
2008-06-13 04:43:30 51°14.912 2°49.236 -999 -999 -999 -999 -999
2008-06-13 04:43:35 51°14.913 2°49.209 -999 -999 -999 -999 -999
2008-06-13 04:43:39 51°14.913 2°49.187 -999 -999 -999 -999 -999
2008-06-13 04:43:43 51°14.914 2°49.165 -999 -999 -999 -999 -999
2008-06-13 04:43:50 51°14.915 2°49.127 -999 -999 -999 -999 -999
2008-06-13 04:43:55 51°14.915 2°49.099 -999 -999 -999 -999 -999
2008-06-13 04:43:59 51°14.916 2°49.077 -999 -999 -999 -999 -999
2008-06-13 04:44:03 51°14.916 2°49.055 -999 -999 -999 -999 -999
2008-06-13 04:44:10 51°14.918 2°49.017 -999 -999 -999 -999 -999
2008-06-13 04:44:15 51°14.918 2°48.99 -999 -999 -999 -999 -999
2008-06-13 04:44:19 51°14.919 2°48.968 -999 -999 -999 -999 -999
2008-06-13 04:44:25 51°14.918 2°48.935 -999 -999 -999 -999 -999
2008-06-13 04:44:30 51°14.92 2°48.908 -999 -999 -999 -999 -999
2008-06-13 04:44:35 51°14.919 2°48.881 -999 -999 -999 -999 -999
2008-06-13 04:44:39 51°14.921 2°48.859 -999 -999 -999 -999 -999
2008-06-13 04:44:45 51°14.921 2°48.826 -999 -999 -999 -999 -999
2008-06-13 04:44:50 51°14.921 2°48.799 -999 -999 -999 -999 -999
2008-06-13 04:44:55 51°14.922 2°48.772 -999 -999 -999 -999 -999
2008-06-13 04:44:59 51°14.922 2°48.75 -999 -999 -999 -999 -999
2008-06-13 04:45:05 51°14.922 2°48.717 -999 -999 -999 -999 -999
2008-06-13 04:45:10 51°14.923 2°48.69 -999 -999 -999 -999 -999
2008-06-13 04:45:15 51°14.923 2°48.663 -999 -999 -999 -999 -999
2008-06-13 04:45:19 51°14.924 2°48.641 -999 -999 -999 -999 -999
2008-06-13 04:45:25 51°14.924 2°48.608 -999 -999 -999 -999 -999
2008-06-13 04:45:30 51°14.924 2°48.581 -999 -999 -999 -999 -999
2008-06-13 04:45:35 51°14.925 2°48.554 -999 -999 -999 -999 -999
2008-06-13 04:45:39 51°14.925 2°48.532 -999 -999 -999 -999 -999
2008-06-13 04:45:43 51°14.925 2°48.51 -999 -999 -999 -999 -999
2008-06-13 04:45:50 51°14.925 2°48.472 -999 -999 -999 -999 -999
2008-06-13 04:45:55 51°14.926 2°48.445 -999 -999 -999 -999 -999
2008-06-13 04:45:59 51°14.925 2°48.423 -999 -999 -999 -999 -999
2008-06-13 04:46:03 51°14.926 2°48.402 -999 -999 -999 -999 -999
2008-06-13 04:46:10 51°14.928 2°48.364 -999 -999 -999 -999 -999
2008-06-13 04:46:15 51°14.927 2°48.336 -999 -999 -999 -999 -999
2008-06-13 04:46:19 51°14.928 2°48.315 -999 -999 -999 -999 -999
2008-06-13 04:46:23 51°14.929 2°48.294 -999 -999 -999 -999 -999
2008-06-13 04:46:30 51°14.929 2°48.256 -999 -999 -999 -999 -999
2008-06-13 04:46:35 51°14.93 2°48.229 -999 -999 -999 -999 -999
2008-06-13 04:46:39 51°14.931 2°48.207 -999 -999 -999 -999 -999
2008-06-13 04:46:45 51°14.931 2°48.174 -999 -999 -999 -999 -999
2008-06-13 04:46:50 51°14.932 2°48.148 -999 -999 -999 -999 -999
2008-06-13 04:46:55 51°14.932 2°48.121 -999 -999 -999 -999 -999
2008-06-13 04:46:59 51°14.934 2°48.099 -999 -999 -999 -999 -999
2008-06-13 04:47:05 51°14.934 2°48.066 -999 -999 -999 -999 -999
2008-06-13 04:47:10 51°14.935 2°48.039 -999 -999 -999 -999 -999
2008-06-13 04:47:15 51°14.936 2°48.012 -999 -999 -999 -999 -999
2008-06-13 04:47:19 51°14.936 2°47.991 -999 -999 -999 -999 -999
2008-06-13 04:47:25 51°14.937 2°47.958 -999 -999 -999 -999 -999
2008-06-13 04:47:30 51°14.938 2°47.931 -999 -999 -999 -999 -999
2008-06-13 04:47:35 51°14.938 2°47.904 -999 -999 -999 -999 -999
2008-06-13 04:47:39 51°14.939 2°47.882 -999 -999 -999 -999 -999
2008-06-13 04:47:45 51°14.94 2°47.85 -999 -999 -999 -999 -999
2008-06-13 04:47:50 51°14.94 2°47.823 -999 -999 -999 -999 -999
2008-06-13 04:47:55 51°14.941 2°47.796 -999 -999 -999 -999 -999
2008-06-13 04:47:59 51°14.941 2°47.774 -999 -999 -999 -999 -999
2008-06-13 04:48:03 51°14.942 2°47.753 -999 -999 -999 -999 -999
2008-06-13 04:48:10 51°14.943 2°47.715 -999 -999 -999 -999 -999
2008-06-13 04:48:15 51°14.944 2°47.688 -999 -999 -999 -999 -999
2008-06-13 04:48:19 51°14.945 2°47.666 -999 -999 -999 -999 -999
2008-06-13 04:48:23 51°14.945 2°47.645 -999 -999 -999 -999 -999
2008-06-13 04:48:29 51°14.945 2°47.612 -999 -999 -999 -999 -999
2008-06-13 04:48:34 51°14.945 2°47.585 -999 -999 -999 -999 -999
2008-06-13 04:48:39 51°14.946 2°47.558 -999 -999 -999 -999 -999
2008-06-13 04:48:45 51°14.947 2°47.526 -999 -999 -999 -999 -999
2008-06-13 04:48:50 51°14.947 2°47.499 -999 -999 -999 -999 -999
2008-06-13 04:48:55 51°14.947 2°47.472 -999 -999 -999 -999 -999
2008-06-13 04:48:59 51°14.948 2°47.45 -999 -999 -999 -999 -999
2008-06-13 04:49:05 51°14.948 2°47.418 -999 -999 -999 -999 -999
2008-06-13 04:49:10 51°14.949 2°47.391 -999 -999 -999 -999 -999
2008-06-13 04:49:15 51°14.949 2°47.364 -999 -999 -999 -999 -999
2008-06-13 04:49:19 51°14.95 2°47.343 -999 -999 -999 -999 -999
2008-06-13 04:49:25 51°14.951 2°47.31 -999 -999 -999 -999 -999
2008-06-13 04:49:30 51°14.951 2°47.283 -999 -999 -999 -999 -999
2008-06-13 04:49:35 51°14.953 2°47.257 -999 -999 -999 -999 -999
2008-06-13 04:49:40 51°14.953 2°47.23 -999 -999 -999 -999 -999
2008-06-13 04:49:45 51°14.954 2°47.203 -999 -999 -999 -999 -999
2008-06-13 04:49:50 51°14.954 2°47.176 -999 -999 -999 -999 -999
2008-06-13 04:49:55 51°14.955 2°47.149 -999 -999 -999 -999 -999
2008-06-13 04:49:59 51°14.955 2°47.127 -999 -999 -999 -999 -999
2008-06-13 04:50:05 51°14.957 2°47.095 -999 -999 -999 -999 -999
2008-06-13 04:50:10 51°14.956 2°47.068 -999 -999 -999 -999 -999
2008-06-13 04:50:15 51°14.957 2°47.041 -999 -999 -999 -999 -999
2008-06-13 04:50:19 51°14.956 2°47.02 -999 -999 -999 -999 -999
2008-06-13 04:50:23 51°14.957 2°46.999 -999 -999 -999 -999 -999
2008-06-13 04:50:30 51°14.958 2°46.962 -999 -999 -999 -999 -999
2008-06-13 04:50:35 51°14.959 2°46.935 -999 -999 -999 -999 -999
2008-06-13 04:50:39 51°14.959 2°46.914 -999 -999 -999 -999 -999
2008-06-13 04:50:43 51°14.96 2°46.892 -999 -999 -999 -999 -999
2008-06-13 04:50:50 51°14.96 2°46.855 -999 -999 -999 -999 -999
2008-06-13 04:50:55 51°14.96 2°46.828 -999 -999 -999 -999 -999
2008-06-13 04:50:59 51°14.961 2°46.806 -999 -999 -999 -999 -999
2008-06-13 04:51:05 51°14.961 2°46.774 -999 -999 -999 -999 -999
2008-06-13 04:51:10 51°14.962 2°46.747 -999 -999 -999 -999 -999
2008-06-13 04:51:15 51°14.963 2°46.721 -999 -999 -999 -999 -999
2008-06-13 04:51:19 51°14.963 2°46.7 -999 -999 -999 -999 -999
2008-06-13 04:51:25 51°14.964 2°46.667 -999 -999 -999 -999 -999
2008-06-13 04:51:30 51°14.963 2°46.641 -999 -999 -999 -999 -999
2008-06-13 04:51:35 51°14.965 2°46.614 -999 -999 -999 -999 -999
2008-06-13 04:51:40 51°14.964 2°46.587 -999 -999 -999 -999 -999
2008-06-13 04:51:45 51°14.966 2°46.561 -999 -999 -999 -999 -999
2008-06-13 04:51:50 51°14.966 2°46.533 -999 -999 -999 -999 -999
2008-06-13 04:51:55 51°14.967 2°46.507 -999 -999 -999 -999 -999
2008-06-13 04:52:00 51°14.967 2°46.48 -999 -999 -999 -999 -999
2008-06-13 04:52:04 51°14.968 2°46.459 -999 -999 -999 -999 -999
2008-06-13 04:52:10 51°14.969 2°46.427 -999 -999 -999 -999 -999
2008-06-13 04:52:15 51°14.97 2°46.401 -999 -999 -999 -999 -999
2008-06-13 04:52:19 51°14.97 2°46.379 -999 -999 -999 -999 -999
2008-06-13 04:52:25 51°14.971 2°46.348 -999 -999 -999 -999 -999
2008-06-13 04:52:30 51°14.972 2°46.321 -999 -999 -999 -999 -999
2008-06-13 04:52:35 51°14.973 2°46.294 -999 -999 -999 -999 -999
2008-06-13 04:52:40 51°14.974 2°46.268 -999 -999 -999 -999 -999
2008-06-13 04:52:43 51°14.975 2°46.252 -999 -999 -999 -999 -999
2008-06-13 04:52:50 51°14.976 2°46.214 -999 -999 -999 -999 -999
2008-06-13 04:52:55 51°14.977 2°46.187 -999 -999 -999 -999 -999
2008-06-13 04:53:00 51°14.978 2°46.161 -999 -999 -999 -999 -999
2008-06-13 04:53:05 51°14.979 2°46.134 -999 -999 -999 -999 -999
2008-06-13 04:53:10 51°14.978 2°46.107 -999 -999 -999 -999 -999
2008-06-13 04:53:15 51°14.98 2°46.08 -999 -999 -999 -999 -999
2008-06-13 04:53:20 51°14.978 2°46.053 -999 -999 -999 -999 -999
2008-06-13 04:53:25 51°14.979 2°46.027 -999 -999 -999 -999 -999
2008-06-13 04:53:30 51°14.978 2°46 -999 -999 -999 -999 -999
2008-06-13 04:53:35 51°14.98 2°45.973 -999 -999 -999 -999 -999
2008-06-13 04:53:40 51°14.979 2°45.946 -999 -999 -999 -999 -999
2008-06-13 04:53:45 51°14.981 2°45.919 -999 -999 -999 -999 -999
2008-06-13 04:53:50 51°14.981 2°45.892 -999 -999 -999 -999 -999
2008-06-13 04:53:55 51°14.982 2°45.865 -999 -999 -999 -999 -999
2008-06-13 04:54:00 51°14.982 2°45.838 -999 -999 -999 -999 -999
2008-06-13 04:54:05 51°14.983 2°45.811 -999 -999 -999 -999 -999
2008-06-13 04:54:10 51°14.984 2°45.784 -999 -999 -999 -999 -999
2008-06-13 04:54:15 51°14.985 2°45.757 -999 -999 -999 -999 -999
2008-06-13 04:54:20 51°14.985 2°45.73 -999 -999 -999 -999 -999
2008-06-13 04:54:25 51°14.986 2°45.703 -999 -999 -999 -999 -999
2008-06-13 04:54:30 51°14.986 2°45.676 -999 -999 -999 -999 -999
2008-06-13 04:54:35 51°14.987 2°45.649 -999 -999 -999 -999 -999
2008-06-13 04:54:40 51°14.988 2°45.622 -999 -999 -999 -999 -999
2008-06-13 04:54:45 51°14.988 2°45.595 -999 -999 -999 -999 -999
2008-06-13 04:54:50 51°14.989 2°45.568 -999 -999 -999 -999 -999
2008-06-13 04:54:55 51°14.99 2°45.54 -999 -999 -999 -999 -999
2008-06-13 04:55:00 51°14.991 2°45.513 -999 -999 -999 -999 -999
2008-06-13 04:55:04 51°14.991 2°45.491 -999 -999 -999 -999 -999
2008-06-13 04:55:10 51°14.992 2°45.459 -999 -999 -999 -999 -999
2008-06-13 04:55:15 51°14.993 2°45.432 -999 -999 -999 -999 -999
2008-06-13 04:55:20 51°14.994 2°45.405 -999 -999 -999 -999 -999
2008-06-13 04:55:24 51°14.994 2°45.384 -999 -999 -999 -999 -999
2008-06-13 04:55:30 51°14.996 2°45.351 -999 -999 -999 -999 -999
2008-06-13 04:55:35 51°14.995 2°45.325 -999 -999 -999 -999 -999
2008-06-13 04:55:40 51°14.996 2°45.298 -999 -999 -999 -999 -999
2008-06-13 04:55:45 51°14.997 2°45.271 -999 -999 -999 -999 -999
2008-06-13 04:55:50 51°14.997 2°45.244 -999 -999 -999 -999 -999
2008-06-13 04:55:55 51°14.998 2°45.217 -999 -999 -999 -999 -999
2008-06-13 04:56:00 51°14.998 2°45.19 -999 -999 -999 -999 -999
2008-06-13 04:56:05 51°14.999 2°45.163 -999 -999 -999 -999 -999
2008-06-13 04:56:10 51°15 2°45.135 -999 -999 -999 -999 -999
2008-06-13 04:56:15 51°15 2°45.108 -999 -999 -999 -999 -999
2008-06-13 04:56:20 51°15 2°45.08 -999 -999 -999 -999 -999
2008-06-13 04:56:25 51°15.002 2°45.053 -999 -999 -999 -999 -999
2008-06-13 04:56:30 51°15.003 2°45.026 -999 -999 -999 -999 -999
2008-06-13 04:56:35 51°15.003 2°44.998 -999 -999 -999 -999 -999
2008-06-13 04:56:40 51°15.005 2°44.971 -999 -999 -999 -999 -999
2008-06-13 04:56:45 51°15.005 2°44.944 -999 -999 -999 -999 -999
2008-06-13 04:56:50 51°15.007 2°44.916 -999 -999 -999 -999 -999
2008-06-13 04:56:55 51°15.007 2°44.889 -999 -999 -999 -999 -999
2008-06-13 04:57:00 51°15.009 2°44.862 -999 -999 -999 -999 -999
2008-06-13 04:57:05 51°15.009 2°44.835 -999 -999 -999 -999 -999
2008-06-13 04:57:10 51°15.01 2°44.808 -999 -999 -999 -999 -999
2008-06-13 04:57:15 51°15.012 2°44.781 -999 -999 -999 -999 -999
2008-06-13 04:57:19 51°15.012 2°44.759 -999 -999 -999 -999 -999
2008-06-13 04:57:24 51°15.013 2°44.732 -999 -999 -999 -999 -999
2008-06-13 04:57:30 51°15.015 2°44.699 -999 -999 -999 -999 -999
2008-06-13 04:57:35 51°15.016 2°44.672 -999 -999 -999 -999 -999
2008-06-13 04:57:40 51°15.017 2°44.645 -999 -999 -999 -999 -999
2008-06-13 04:57:43 51°15.018 2°44.629 -999 -999 -999 -999 -999
2008-06-13 04:57:50 51°15.021 2°44.591 -999 -999 -999 -999 -999
2008-06-13 04:57:55 51°15.022 2°44.564 -999 -999 -999 -999 -999
2008-06-13 04:58:00 51°15.025 2°44.537 -999 -999 -999 -999 -999
2008-06-13 04:58:05 51°15.025 2°44.51 -999 -999 -999 -999 -999
2008-06-13 04:58:10 51°15.028 2°44.483 -999 -999 -999 -999 -999
2008-06-13 04:58:15 51°15.029 2°44.456 -999 -999 -999 -999 -999
2008-06-13 04:58:19 51°15.031 2°44.435 -999 -999 -999 -999 -999
2008-06-13 04:58:25 51°15.033 2°44.402 -999 -999 -999 -999 -999
2008-06-13 04:58:30 51°15.034 2°44.375 -999 -999 -999 -999 -999
2008-06-13 04:58:35 51°15.036 2°44.348 -999 -999 -999 -999 -999
2008-06-13 04:58:39 51°15.037 2°44.327 -999 -999 -999 -999 -999
2008-06-13 04:58:45 51°15.038 2°44.295 -999 -999 -999 -999 -999
2008-06-13 04:58:50 51°15.041 2°44.269 -999 -999 -999 -999 -999
2008-06-13 04:58:55 51°15.042 2°44.242 -999 -999 -999 -999 -999
2008-06-13 04:59:00 51°15.043 2°44.215 -999 -999 -999 -999 -999
2008-06-13 04:59:05 51°15.045 2°44.189 -999 -999 -999 -999 -999
2008-06-13 04:59:10 51°15.047 2°44.162 -999 -999 -999 -999 -999
2008-06-13 04:59:15 51°15.049 2°44.135 -999 -999 -999 -999 -999
2008-06-13 04:59:19 51°15.05 2°44.114 -999 -999 -999 -999 -999
2008-06-13 04:59:25 51°15.052 2°44.082 -999 -999 -999 -999 -999
2008-06-13 04:59:30 51°15.054 2°44.055 -999 -999 -999 -999 -999
2008-06-13 04:59:35 51°15.056 2°44.028 -999 -999 -999 -999 -999
2008-06-13 04:59:40 51°15.056 2°44.001 -999 -999 -999 -999 -999
2008-06-13 04:59:43 51°15.057 2°43.986 -999 -999 -999 -999 -999
2008-06-13 04:59:50 51°15.06 2°43.949 -999 -999 -999 -999 -999
2008-06-13 04:59:55 51°15.062 2°43.923 -999 -999 -999 -999 -999
2008-06-13 05:00:00 51°15.065 2°43.897 -999 -999 -999 -999 -999
2008-06-13 05:00:05 51°15.068 2°43.871 -999 -999 -999 -999 -999
2008-06-13 05:00:10 51°15.071 2°43.845 -999 -999 -999 -999 -999
2008-06-13 05:00:15 51°15.073 2°43.819 -999 -999 -999 -999 -999
2008-06-13 05:00:19 51°15.076 2°43.798 -999 -999 -999 -999 -999
2008-06-13 05:00:25 51°15.079 2°43.767 -999 -999 -999 -999 -999
2008-06-13 05:00:30 51°15.083 2°43.741 -999 -999 -999 -999 -999
2008-06-13 05:00:35 51°15.087 2°43.716 -999 -999 -999 -999 -999
2008-06-13 05:00:40 51°15.09 2°43.689 -999 -999 -999 -999 -999
2008-06-13 05:00:45 51°15.095 2°43.664 -999 -999 -999 -999 -999
2008-06-13 05:00:50 51°15.099 2°43.638 -999 -999 -999 -999 -999
2008-06-13 05:00:55 51°15.103 2°43.613 -999 -999 -999 -999 -999
2008-06-13 05:00:59 51°15.107 2°43.593 -999 -999 -999 -999 -999
2008-06-13 05:01:05 51°15.111 2°43.561 -999 -999 -999 -999 -999
2008-06-13 05:01:10 51°15.116 2°43.536 -999 -999 -999 -999 -999
2008-06-13 05:01:15 51°15.119 2°43.511 -999 -999 -999 -999 -999
2008-06-13 05:01:19 51°15.122 2°43.49 -999 -999 -999 -999 -999
2008-06-13 05:01:25 51°15.127 2°43.459 -999 -999 -999 -999 -999
2008-06-13 05:01:30 51°15.13 2°43.433 -999 -999 -999 -999 -999
2008-06-13 05:01:35 51°15.134 2°43.406 -999 -999 -999 -999 -999
2008-06-13 05:01:39 51°15.137 2°43.386 -999 -999 -999 -999 -999
2008-06-13 05:01:43 51°15.14 2°43.365 -999 -999 -999 -999 -999
2008-06-13 05:01:50 51°15.146 2°43.33 -999 -999 -999 -999 -999
2008-06-13 05:01:55 51°15.148 2°43.303 -999 -999 -999 -999 -999
2008-06-13 05:01:59 51°15.152 2°43.283 -999 -999 -999 -999 -999
2008-06-13 05:02:05 51°15.155 2°43.252 -999 -999 -999 -999 -999
2008-06-13 05:02:10 51°15.159 2°43.226 -999 -999 -999 -999 -999
2008-06-13 05:02:15 51°15.163 2°43.2 -999 -999 -999 -999 -999
2008-06-13 05:02:20 51°15.167 2°43.175 -999 -999 -999 -999 -999
2008-06-13 05:02:25 51°15.17 2°43.149 -999 -999 -999 -999 -999
2008-06-13 05:02:30 51°15.173 2°43.123 -999 -999 -999 -999 -999
2008-06-13 05:02:35 51°15.176 2°43.097 -999 -999 -999 -999 -999
2008-06-13 05:02:40 51°15.179 2°43.072 -999 -999 -999 -999 -999
2008-06-13 05:02:45 51°15.183 2°43.046 -999 -999 -999 -999 -999
2008-06-13 05:02:50 51°15.186 2°43.021 -999 -999 -999 -999 -999
2008-06-13 05:02:55 51°15.19 2°42.995 -999 -999 -999 -999 -999
2008-06-13 05:03:00 51°15.193 2°42.969 -999 -999 -999 -999 -999
2008-06-13 05:03:05 51°15.197 2°42.943 -999 -999 -999 -999 -999
2008-06-13 05:03:10 51°15.201 2°42.918 -999 -999 -999 -999 -999
2008-06-13 05:03:15 51°15.204 2°42.893 -999 -999 -999 -999 -999
2008-06-13 05:03:20 51°15.207 2°42.867 -999 -999 -999 -999 -999
2008-06-13 05:03:25 51°15.211 2°42.842 -999 -999 -999 -999 -999
2008-06-13 05:03:30 51°15.216 2°42.818 -999 -999 -999 -999 -999
2008-06-13 05:03:35 51°15.219 2°42.793 -999 -999 -999 -999 -999
2008-06-13 05:03:39 51°15.222 2°42.772 -999 -999 -999 -999 -999
2008-06-13 05:03:45 51°15.227 2°42.741 -999 -999 -999 -999 -999
2008-06-13 05:03:50 51°15.231 2°42.717 -999 -999 -999 -999 -999
2008-06-13 05:03:55 51°15.236 2°42.692 -999 -999 -999 -999 -999
2008-06-13 05:04:00 51°15.24 2°42.666 -999 -999 -999 -999 -999
2008-06-13 05:04:04 51°15.243 2°42.646 -999 -999 -999 -999 -999
2008-06-13 05:04:10 51°15.247 2°42.616 -999 -999 -999 -999 -999
2008-06-13 05:04:15 51°15.252 2°42.591 -999 -999 -999 -999 -999
2008-06-13 05:04:20 51°15.256 2°42.566 -999 -999 -999 -999 -999
2008-06-13 05:04:25 51°15.259 2°42.541 -999 -999 -999 -999 -999
2008-06-13 05:04:30 51°15.263 2°42.515 -999 -999 -999 -999 -999
2008-06-13 05:04:35 51°15.268 2°42.489 -999 -999 -999 -999 -999
2008-06-13 05:04:40 51°15.271 2°42.464 -999 -999 -999 -999 -999
2008-06-13 05:04:45 51°15.275 2°42.439 -999 -999 -999 -999 -999
2008-06-13 05:04:50 51°15.279 2°42.414 -999 -999 -999 -999 -999
2008-06-13 05:04:55 51°15.284 2°42.389 -999 -999 -999 -999 -999
2008-06-13 05:05:00 51°15.287 2°42.364 -999 -999 -999 -999 -999
2008-06-13 05:05:05 51°15.291 2°42.339 -999 -999 -999 -999 -999
2008-06-13 05:05:10 51°15.294 2°42.314 -999 -999 -999 -999 -999
2008-06-13 05:05:15 51°15.298 2°42.29 -999 -999 -999 -999 -999
2008-06-13 05:05:20 51°15.302 2°42.265 -999 -999 -999 -999 -999
2008-06-13 05:05:25 51°15.307 2°42.24 -999 -999 -999 -999 -999
2008-06-13 05:05:30 51°15.311 2°42.215 -999 -999 -999 -999 -999
2008-06-13 05:05:35 51°15.317 2°42.191 -999 -999 -999 -999 -999
2008-06-13 05:05:39 51°15.32 2°42.171 -999 -999 -999 -999 -999
2008-06-13 05:05:45 51°15.326 2°42.141 -999 -999 -999 -999 -999
2008-06-13 05:05:50 51°15.332 2°42.117 -999 -999 -999 -999 -999
2008-06-13 05:05:55 51°15.336 2°42.092 -999 -999 -999 -999 -999
2008-06-13 05:06:00 51°15.342 2°42.068 -999 -999 -999 -999 -999
2008-06-13 05:06:04 51°15.346 2°42.048 -999 -999 -999 -999 -999
2008-06-13 05:06:10 51°15.352 2°42.017 -999 -999 -999 -999 -999
2008-06-13 05:06:15 51°15.358 2°41.993 -999 -999 -999 -999 -999
2008-06-13 05:06:20 51°15.364 2°41.969 -999 -999 -999 -999 -999
2008-06-13 05:06:24 51°15.369 2°41.949 -999 -999 -999 -999 -999
2008-06-13 05:06:30 51°15.376 2°41.92 -999 -999 -999 -999 -999
2008-06-13 05:06:35 51°15.382 2°41.897 -999 -999 -999 -999 -999
2008-06-13 05:06:40 51°15.39 2°41.873 -999 -999 -999 -999 -999
2008-06-13 05:06:45 51°15.396 2°41.849 -999 -999 -999 -999 -999
2008-06-13 05:06:50 51°15.404 2°41.826 -999 -999 -999 -999 -999
2008-06-13 05:06:55 51°15.41 2°41.802 -999 -999 -999 -999 -999
2008-06-13 05:07:00 51°15.418 2°41.779 -999 -999 -999 -999 -999
2008-06-13 05:07:05 51°15.426 2°41.756 -999 -999 -999 -999 -999
2008-06-13 05:07:10 51°15.433 2°41.734 -999 -999 -999 -999 -999
2008-06-13 05:07:15 51°15.441 2°41.712 -999 -999 -999 -999 -999
2008-06-13 05:07:19 51°15.448 2°41.694 -999 -999 -999 -999 -999
2008-06-13 05:07:25 51°15.459 2°41.668 -999 -999 -999 -999 -999
2008-06-13 05:07:30 51°15.466 2°41.646 -999 -999 -999 -999 -999
2008-06-13 05:07:35 51°15.475 2°41.624 -999 -999 -999 -999 -999
2008-06-13 05:07:39 51°15.481 2°41.607 -999 -999 -999 -999 -999
2008-06-13 05:07:45 51°15.491 2°41.58 -999 -999 -999 -999 -999
2008-06-13 05:07:50 51°15.499 2°41.559 -999 -999 -999 -999 -999
2008-06-13 05:07:55 51°15.508 2°41.537 -999 -999 -999 -999 -999
2008-06-13 05:07:59 51°15.515 2°41.52 -999 -999 -999 -999 -999
2008-06-13 05:08:05 51°15.524 2°41.493 -999 -999 -999 -999 -999
2008-06-13 05:08:10 51°15.532 2°41.471 -999 -999 -999 -999 -999
2008-06-13 05:08:15 51°15.539 2°41.448 -999 -999 -999 -999 -999
2008-06-13 05:08:19 51°15.546 2°41.431 -999 -999 -999 -999 -999
2008-06-13 05:08:25 51°15.554 2°41.403 -999 -999 -999 -999 -999
2008-06-13 05:08:30 51°15.563 2°41.381 -999 -999 -999 -999 -999
2008-06-13 05:08:35 51°15.569 2°41.357 -999 -999 -999 -999 -999
2008-06-13 05:08:40 51°15.577 2°41.335 -999 -999 -999 -999 -999
2008-06-13 05:08:45 51°15.583 2°41.312 -999 -999 -999 -999 -999
2008-06-13 05:08:50 51°15.59 2°41.29 -999 -999 -999 -999 -999
2008-06-13 05:08:55 51°15.597 2°41.268 -999 -999 -999 -999 -999
2008-06-13 05:09:00 51°15.604 2°41.246 -999 -999 -999 -999 -999
2008-06-13 05:09:04 51°15.61 2°41.228 -999 -999 -999 -999 -999
2008-06-13 05:09:10 51°15.618 2°41.2 -999 -999 -999 -999 -999
2008-06-13 05:09:15 51°15.626 2°41.177 -999 -999 -999 -999 -999
2008-06-13 05:09:19 51°15.631 2°41.159 -999 -999 -999 -999 -999
2008-06-13 05:09:25 51°15.639 2°41.132 -999 -999 -999 -999 -999
2008-06-13 05:09:30 51°15.647 2°41.109 -999 -999 -999 -999 -999
2008-06-13 05:09:35 51°15.654 2°41.087 -999 -999 -999 -999 -999
2008-06-13 05:09:39 51°15.659 2°41.068 -999 -999 -999 -999 -999
2008-06-13 05:09:45 51°15.667 2°41.04 -999 -999 -999 -999 -999
2008-06-13 05:09:50 51°15.675 2°41.017 -999 -999 -999 -999 -999
2008-06-13 05:09:55 51°15.681 2°40.995 -999 -999 -999 -999 -999
2008-06-13 05:09:59 51°15.687 2°40.977 -999 -999 -999 -999 -999
2008-06-13 05:10:05 51°15.695 2°40.949 -999 -999 -999 -999 -999
2008-06-13 05:10:10 51°15.702 2°40.927 -999 -999 -999 -999 -999
2008-06-13 05:10:15 51°15.709 2°40.905 -999 -999 -999 -999 -999
2008-06-13 05:10:19 51°15.715 2°40.886 -999 -999 -999 -999 -999
2008-06-13 05:10:25 51°15.724 2°40.858 -999 -999 -999 -999 -999
2008-06-13 05:10:30 51°15.731 2°40.835 -999 -999 -999 -999 -999
2008-06-13 05:10:35 51°15.739 2°40.812 -999 -999 -999 -999 -999
2008-06-13 05:10:40 51°15.746 2°40.788 -999 -999 -999 -999 -999
2008-06-13 05:10:45 51°15.753 2°40.765 -999 -999 -999 -999 -999
2008-06-13 05:10:50 51°15.76 2°40.741 -999 -999 -999 -999 -999
2008-06-13 05:10:55 51°15.767 2°40.718 -999 -999 -999 -999 -999
2008-06-13 05:11:00 51°15.774 2°40.694 -999 -999 -999 -999 -999
2008-06-13 05:11:05 51°15.781 2°40.67 -999 -999 -999 -999 -999
2008-06-13 05:11:10 51°15.789 2°40.647 -999 -999 -999 -999 -999
2008-06-13 05:11:15 51°15.796 2°40.623 -999 -999 -999 -999 -999
2008-06-13 05:11:20 51°15.803 2°40.599 -999 -999 -999 -999 -999
2008-06-13 05:11:25 51°15.81 2°40.576 -999 -999 -999 -999 -999
2008-06-13 05:11:30 51°15.818 2°40.552 -999 -999 -999 -999 -999
2008-06-13 05:11:35 51°15.825 2°40.529 -999 -999 -999 -999 -999
2008-06-13 05:11:40 51°15.832 2°40.506 -999 -999 -999 -999 -999
2008-06-13 05:11:45 51°15.84 2°40.482 -999 -999 -999 -999 -999
2008-06-13 05:11:50 51°15.847 2°40.459 -999 -999 -999 -999 -999
2008-06-13 05:11:55 51°15.854 2°40.434 -999 -999 -999 -999 -999
2008-06-13 05:12:00 51°15.861 2°40.411 -999 -999 -999 -999 -999
2008-06-13 05:12:05 51°15.868 2°40.388 -999 -999 -999 -999 -999
2008-06-13 05:12:10 51°15.876 2°40.365 -999 -999 -999 -999 -999
2008-06-13 05:12:15 51°15.883 2°40.341 -999 -999 -999 -999 -999
2008-06-13 05:12:19 51°15.889 2°40.323 -999 -999 -999 -999 -999
2008-06-13 05:12:25 51°15.897 2°40.294 -999 -999 -999 -999 -999
2008-06-13 05:12:30 51°15.905 2°40.271 -999 -999 -999 -999 -999
2008-06-13 05:12:35 51°15.912 2°40.247 -999 -999 -999 -999 -999
2008-06-13 05:12:40 51°15.919 2°40.224 -999 -999 -999 -999 -999
2008-06-13 05:12:45 51°15.926 2°40.199 -999 -999 -999 -999 -999
2008-06-13 05:12:50 51°15.933 2°40.175 -999 -999 -999 -999 -999
2008-06-13 05:12:55 51°15.94 2°40.151 -999 -999 -999 -999 -999
2008-06-13 05:13:00 51°15.947 2°40.127 -999 -999 -999 -999 -999
2008-06-13 05:13:05 51°15.954 2°40.103 -999 -999 -999 -999 -999
2008-06-13 05:13:10 51°15.961 2°40.08 -999 -999 -999 -999 -999
2008-06-13 05:13:15 51°15.969 2°40.057 -999 -999 -999 -999 -999
2008-06-13 05:13:20 51°15.976 2°40.032 -999 -999 -999 -999 -999
2008-06-13 05:13:25 51°15.984 2°40.008 -999 -999 -999 -999 -999
2008-06-13 05:13:30 51°15.99 2°39.984 -999 -999 -999 -999 -999
2008-06-13 05:13:35 51°15.998 2°39.959 -999 -999 -999 -999 -999
2008-06-13 05:13:39 51°16.003 2°39.94 -999 -999 -999 -999 -999
2008-06-13 05:13:45 51°16.012 2°39.911 -999 -999 -999 -999 -999
2008-06-13 05:13:50 51°16.019 2°39.887 -999 -999 -999 -999 -999
2008-06-13 05:13:55 51°16.027 2°39.864 -999 -999 -999 -999 -999
2008-06-13 05:13:59 51°16.033 2°39.844 -999 -999 -999 -999 -999
2008-06-13 05:14:05 51°16.042 2°39.816 -999 -999 -999 -999 -999
2008-06-13 05:14:10 51°16.049 2°39.792 -999 -999 -999 -999 -999
2008-06-13 05:14:15 51°16.056 2°39.768 -999 -999 -999 -999 -999
2008-06-13 05:14:19 51°16.062 2°39.749 -999 -999 -999 -999 -999
2008-06-13 05:14:25 51°16.071 2°39.72 -999 -999 -999 -999 -999
2008-06-13 05:14:30 51°16.078 2°39.696 -999 -999 -999 -999 -999
2008-06-13 05:14:35 51°16.085 2°39.672 -999 -999 -999 -999 -999
2008-06-13 05:14:39 51°16.091 2°39.654 -999 -999 -999 -999 -999
2008-06-13 05:14:45 51°16.1 2°39.625 -999 -999 -999 -999 -999
2008-06-13 05:14:50 51°16.107 2°39.601 -999 -999 -999 -999 -999
2008-06-13 05:14:55 51°16.114 2°39.578 -999 -999 -999 -999 -999
2008-06-13 05:14:59 51°16.12 2°39.558 -999 -999 -999 -999 -999
2008-06-13 05:15:05 51°16.129 2°39.531 -999 -999 -999 -999 -999
2008-06-13 05:15:10 51°16.136 2°39.506 -999 -999 -999 -999 -999
2008-06-13 05:15:15 51°16.143 2°39.483 -999 -999 -999 -999 -999
2008-06-13 05:15:19 51°16.149 2°39.464 -999 -999 -999 -999 -999
2008-06-13 05:15:25 51°16.158 2°39.436 -999 -999 -999 -999 -999
2008-06-13 05:15:30 51°16.164 2°39.412 -999 -999 -999 -999 -999
2008-06-13 05:15:35 51°16.172 2°39.388 -999 -999 -999 -999 -999
2008-06-13 05:15:39 51°16.177 2°39.369 -999 -999 -999 -999 -999
2008-06-13 05:15:43 51°16.183 2°39.35 -999 -999 -999 -999 -999
2008-06-13 05:15:50 51°16.193 2°39.317 -999 -999 -999 -999 -999
2008-06-13 05:15:55 51°16.2 2°39.292 -999 -999 -999 -999 -999
2008-06-13 05:15:59 51°16.206 2°39.273 -999 -999 -999 -999 -999
2008-06-13 05:16:05 51°16.214 2°39.244 -999 -999 -999 -999 -999
2008-06-13 05:16:10 51°16.221 2°39.22 -999 -999 -999 -999 -999
2008-06-13 05:16:14 51°16.227 2°39.201 -999 -999 -999 -999 -999
2008-06-13 05:16:19 51°16.234 2°39.177 -999 -999 -999 -999 -999
2008-06-13 05:16:25 51°16.243 2°39.148 -999 -999 -999 -999 -999
2008-06-13 05:16:30 51°16.25 2°39.124 -999 -999 -999 -999 -999
2008-06-13 05:16:35 51°16.258 2°39.1 -999 -999 -999 -999 -999
2008-06-13 05:16:40 51°16.265 2°39.076 -999 -999 -999 -999 -999
2008-06-13 05:16:45 51°16.272 2°39.052 -999 -999 -999 -999 -999
2008-06-13 05:16:50 51°16.28 2°39.028 -999 -999 -999 -999 -999
2008-06-13 05:16:55 51°16.287 2°39.004 -999 -999 -999 -999 -999
2008-06-13 05:16:59 51°16.294 2°38.986 -999 -999 -999 -999 -999
2008-06-13 05:17:05 51°16.303 2°38.958 -999 -999 -999 -999 -999
2008-06-13 05:17:10 51°16.31 2°38.934 -999 -999 -999 -999 -999
2008-06-13 05:17:15 51°16.318 2°38.911 -999 -999 -999 -999 -999
2008-06-13 05:17:19 51°16.324 2°38.892 -999 -999 -999 -999 -999
2008-06-13 05:17:25 51°16.333 2°38.865 -999 -999 -999 -999 -999
2008-06-13 05:17:30 51°16.341 2°38.842 -999 -999 -999 -999 -999
2008-06-13 05:17:35 51°16.348 2°38.819 -999 -999 -999 -999 -999
2008-06-13 05:17:39 51°16.353 2°38.801 -999 -999 -999 -999 -999
2008-06-13 05:17:43 51°16.359 2°38.782 -999 -999 -999 -999 -999
2008-06-13 05:17:50 51°16.369 2°38.75 -999 -999 -999 -999 -999
2008-06-13 05:17:55 51°16.377 2°38.729 -999 -999 -999 -999 -999
2008-06-13 05:17:59 51°16.383 2°38.71 -999 -999 -999 -999 -999
2008-06-13 05:18:05 51°16.392 2°38.683 -999 -999 -999 -999 -999
2008-06-13 05:18:10 51°16.399 2°38.66 -999 -999 -999 -999 -999
2008-06-13 05:18:15 51°16.407 2°38.637 -999 -999 -999 -999 -999
2008-06-13 05:18:19 51°16.413 2°38.621 -999 -999 -999 -999 -999
2008-06-13 05:18:25 51°16.421 2°38.592 -999 -999 -999 -999 -999
2008-06-13 05:18:30 51°16.429 2°38.571 -999 -999 -999 -999 -999
2008-06-13 05:18:35 51°16.436 2°38.548 -999 -999 -999 -999 -999
2008-06-13 05:18:39 51°16.443 2°38.532 -999 -999 -999 -999 -999
2008-06-13 05:18:45 51°16.45 2°38.502 -999 -999 -999 -999 -999
2008-06-13 05:18:50 51°16.46 2°38.483 -999 -999 -999 -999 -999
2008-06-13 05:18:55 51°16.465 2°38.459 -999 -999 -999 -999 -999
2008-06-13 05:18:59 51°16.473 2°38.444 -999 -999 -999 -999 -999
2008-06-13 05:19:05 51°16.481 2°38.417 -999 -999 -999 -999 -999
2008-06-13 05:19:10 51°16.489 2°38.395 -999 -999 -999 -999 -999
2008-06-13 05:19:15 51°16.497 2°38.373 -999 -999 -999 -999 -999
2008-06-13 05:19:19 51°16.504 2°38.356 -999 -999 -999 -999 -999
2008-06-13 05:19:25 51°16.512 2°38.329 -999 -999 -999 -999 -999
2008-06-13 05:19:30 51°16.521 2°38.308 -999 -999 -999 -999 -999
2008-06-13 05:19:35 51°16.529 2°38.286 -999 -999 -999 -999 -999
2008-06-13 05:19:39 51°16.535 2°38.268 -999 -999 -999 -999 -999
2008-06-13 05:19:45 51°16.546 2°38.243 -999 -999 -999 -999 -999
2008-06-13 05:19:50 51°16.553 2°38.22 -999 -999 -999 -999 -999
2008-06-13 05:19:55 51°16.562 2°38.2 -999 -999 -999 -999 -999
2008-06-13 05:19:59 51°16.567 2°38.182 -999 -999 -999 -999 -999
2008-06-13 05:20:05 51°16.577 2°38.157 -999 -999 -999 -999 -999
2008-06-13 05:20:10 51°16.586 2°38.136 -999 -999 -999 -999 -999
2008-06-13 05:20:15 51°16.594 2°38.114 -999 -999 -999 -999 -999
2008-06-13 05:20:19 51°16.6 2°38.097 -999 -999 -999 -999 -999
2008-06-13 05:20:25 51°16.611 2°38.071 -999 -999 -999 -999 -999
2008-06-13 05:20:30 51°16.619 2°38.051 -999 -999 -999 -999 -999
2008-06-13 05:20:35 51°16.626 2°38.03 -999 -999 -999 -999 -999
2008-06-13 05:20:39 51°16.632 2°38.014 -999 -999 -999 -999 -999
2008-06-13 05:20:45 51°16.641 2°37.99 -999 -999 -999 -999 -999
2008-06-13 05:20:50 51°16.649 2°37.97 -999 -999 -999 -999 -999
2008-06-13 05:20:55 51°16.657 2°37.95 -999 -999 -999 -999 -999
2008-06-13 05:20:59 51°16.662 2°37.935 -999 -999 -999 -999 -999
2008-06-13 05:21:05 51°16.671 2°37.911 -999 -999 -999 -999 -999
2008-06-13 05:21:10 51°16.678 2°37.891 -999 -999 -999 -999 -999
2008-06-13 05:21:15 51°16.685 2°37.872 -999 -999 -999 -999 -999
2008-06-13 05:21:19 51°16.69 2°37.856 -999 -999 -999 -999 -999
2008-06-13 05:21:25 51°16.699 2°37.833 -999 -999 -999 -999 -999
2008-06-13 05:21:30 51°16.706 2°37.813 -999 -999 -999 -999 -999
2008-06-13 05:21:35 51°16.713 2°37.794 -999 -999 -999 -999 -999
2008-06-13 05:21:39 51°16.719 2°37.778 -999 -999 -999 -999 -999
2008-06-13 05:21:45 51°16.727 2°37.754 -999 -999 -999 -999 -999
2008-06-13 05:21:50 51°16.734 2°37.734 -999 -999 -999 -999 -999
2008-06-13 05:21:55 51°16.741 2°37.715 -999 -999 -999 -999 -999
2008-06-13 05:21:59 51°16.747 2°37.7 -999 -999 -999 -999 -999
2008-06-13 05:22:05 51°16.755 2°37.677 -999 -999 -999 -999 -999
2008-06-13 05:22:10 51°16.761 2°37.658 -999 -999 -999 -999 -999
2008-06-13 05:22:15 51°16.768 2°37.641 -999 -999 -999 -999 -999
2008-06-13 05:22:19 51°16.773 2°37.628 -999 -999 -999 -999 -999
2008-06-13 05:22:23 51°16.777 2°37.615 -999 -999 -999 -999 -999
2008-06-13 05:22:30 51°16.785 2°37.595 -999 -999 -999 -999 -999
2008-06-13 05:22:35 51°16.792 2°37.583 -999 -999 -999 -999 -999
2008-06-13 05:22:39 51°16.797 2°37.574 -999 -999 -999 -999 -999
2008-06-13 05:22:45 51°16.805 2°37.562 -999 -999 -999 -999 -999
2008-06-13 05:22:50 51°16.812 2°37.555 -999 -999 -999 -999 -999
2008-06-13 05:22:55 51°16.818 2°37.549 -999 -999 -999 -999 -999
2008-06-13 05:22:59 51°16.823 2°37.545 -999 -999 -999 -999 -999
2008-06-13 05:23:05 51°16.83 2°37.543 -999 -999 -999 -999 -999
2008-06-13 05:23:10 51°16.836 2°37.541 -999 -999 -999 -999 -999
2008-06-13 05:23:15 51°16.841 2°37.541 -999 -999 -999 -999 -999
2008-06-13 05:23:19 51°16.845 2°37.541 -999 -999 -999 -999 -999
2008-06-13 05:23:25 51°16.852 2°37.542 -999 -999 -999 -999 -999
2008-06-13 05:23:30 51°16.857 2°37.543 -999 -999 -999 -999 -999
2008-06-13 05:23:35 51°16.863 2°37.545 -999 -999 -999 -999 -999
2008-06-13 05:23:39 51°16.867 2°37.545 -999 -999 -999 -999 -999
2008-06-13 05:23:45 51°16.874 2°37.546 -999 -999 -999 -999 -999
2008-06-13 05:23:50 51°16.879 2°37.547 -999 -999 -999 -999 -999
2008-06-13 05:23:55 51°16.885 2°37.546 -999 -999 -999 -999 -999
2008-06-13 05:23:59 51°16.889 2°37.546 -999 -999 -999 -999 -999
2008-06-13 05:24:05 51°16.896 2°37.544 -999 -999 -999 -999 -999
2008-06-13 05:24:10 51°16.902 2°37.543 -999 -999 -999 -999 -999
2008-06-13 05:24:15 51°16.908 2°37.542 -999 -999 -999 -999 -999
2008-06-13 05:24:19 51°16.912 2°37.54 -999 -999 -999 -999 -999
2008-06-13 05:24:23 51°16.917 2°37.539 -999 -999 -999 -999 -999
2008-06-13 05:24:30 51°16.925 2°37.535 -999 -999 -999 -999 -999
2008-06-13 05:24:35 51°16.93 2°37.533 -999 -999 -999 -999 -999
2008-06-13 05:24:39 51°16.935 2°37.532 -999 -999 -999 -999 -999
2008-06-13 05:24:45 51°16.942 2°37.529 -999 -999 -999 -999 -999
2008-06-13 05:24:50 51°16.948 2°37.528 -999 -999 -999 -999 -999
2008-06-13 05:24:55 51°16.954 2°37.526 -999 -999 -999 -999 -999
2008-06-13 05:24:59 51°16.959 2°37.526 -999 -999 -999 -999 -999
2008-06-13 05:25:05 51°16.965 2°37.526 -999 -999 -999 -999 -999
2008-06-13 05:25:10 51°16.97 2°37.526 -999 -999 -999 -999 -999
2008-06-13 05:25:15 51°16.974 2°37.526 -999 -999 -999 -999 -999
2008-06-13 05:25:19 51°16.977 2°37.527 -999 -999 -999 -999 -999
2008-06-13 05:25:25 51°16.982 2°37.527 -999 -999 -999 -999 -999
2008-06-13 05:25:30 51°16.986 2°37.529 -999 -999 -999 -999 -999
2008-06-13 05:25:35 51°16.989 2°37.53 -999 -999 -999 -999 -999
2008-06-13 05:25:39 51°16.992 2°37.531 -999 -999 -999 -999 -999
2008-06-13 05:25:45 51°16.997 2°37.534 -999 -999 -999 -999 -999
2008-06-13 05:25:50 51°17 2°37.536 -999 -999 -999 -999 -999
2008-06-13 05:25:55 51°17.004 2°37.538 -999 -999 -999 -999 -999
2008-06-13 05:25:59 51°17.006 2°37.539 -999 -999 -999 -999 -999
2008-06-13 05:26:05 51°17.01 2°37.542 -999 -999 -999 -999 -999
2008-06-13 05:26:09 51°17.012 2°37.543 -999 -999 -999 -999 -999
2008-06-13 05:26:15 51°17.016 2°37.545 -999 -999 -999 -999 -999
2008-06-13 05:26:19 51°17.019 2°37.546 -999 -999 -999 -999 -999
2008-06-13 05:26:25 51°17.022 2°37.548 -999 -999 -999 -999 -999
2008-06-13 05:26:30 51°17.025 2°37.55 -999 -999 -999 -999 -999
2008-06-13 05:26:35 51°17.028 2°37.552 -999 -999 -999 -999 -999
2008-06-13 05:26:39 51°17.031 2°37.553 -999 -999 -999 -999 -999
2008-06-13 05:26:43 51°17.033 2°37.555 -999 -999 -999 -999 -999
2008-06-13 05:26:50 51°17.036 2°37.557 -999 -999 -999 -999 -999
2008-06-13 05:26:55 51°17.038 2°37.558 -999 -999 -999 -999 -999
2008-06-13 05:26:59 51°17.04 2°37.559 -999 -999 -999 -999 -999
2008-06-13 05:27:05 51°17.042 2°37.561 -999 -999 -999 -999 -999
2008-06-13 05:27:10 51°17.044 2°37.562 -999 -999 -999 -999 -999
2008-06-13 05:27:15 51°17.046 2°37.564 -999 -999 -999 -999 -999
2008-06-13 05:27:19 51°17.048 2°37.565 -999 -999 -999 -999 -999
2008-06-13 05:27:25 51°17.05 2°37.567 -999 -999 -999 -999 -999
2008-06-13 05:27:30 51°17.052 2°37.569 -999 -999 -999 -999 -999
2008-06-13 05:27:35 51°17.054 2°37.57 -999 -999 -999 -999 -999
2008-06-13 05:27:39 51°17.056 2°37.571 -999 -999 -999 -999 -999
2008-06-13 05:27:45 51°17.058 2°37.574 -999 -999 -999 -999 -999
2008-06-13 05:27:50 51°17.061 2°37.575 -999 -999 -999 -999 -999
2008-06-13 05:27:55 51°17.063 2°37.576 -999 -999 -999 -999 -999
2008-06-13 05:27:59 51°17.064 2°37.577 -999 -999 -999 -999 -999
2008-06-13 05:28:05 51°17.067 2°37.579 -999 -999 -999 -999 -999
2008-06-13 05:28:10 51°17.069 2°37.58 -999 -999 -999 -999 -999
2008-06-13 05:28:15 51°17.071 2°37.582 -999 -999 -999 -999 -999
2008-06-13 05:28:19 51°17.072 2°37.583 -999 -999 -999 -999 -999
2008-06-13 05:28:25 51°17.074 2°37.584 -999 -999 -999 -999 -999
2008-06-13 05:28:30 51°17.076 2°37.586 -999 -999 -999 -999 -999
2008-06-13 05:28:35 51°17.078 2°37.588 -999 -999 -999 -999 -999
2008-06-13 05:28:39 51°17.079 2°37.589 -999 -999 -999 -999 -999
2008-06-13 05:28:45 51°17.081 2°37.592 -999 -999 -999 -999 -999
2008-06-13 05:28:50 51°17.083 2°37.593 -999 -999 -999 -999 -999
2008-06-13 05:28:55 51°17.085 2°37.595 -999 -999 -999 -999 -999
2008-06-13 05:28:59 51°17.086 2°37.596 -999 -999 -999 -999 -999
2008-06-13 05:29:05 51°17.088 2°37.598 -999 -999 -999 -999 -999
2008-06-13 05:29:10 51°17.089 2°37.6 -999 -999 -999 -999 -999
2008-06-13 05:29:15 51°17.091 2°37.602 -999 -999 -999 -999 -999
2008-06-13 05:29:19 51°17.092 2°37.604 -999 -999 -999 -999 -999
2008-06-13 05:29:25 51°17.094 2°37.606 -999 -999 -999 -999 -999
2008-06-13 05:29:29 51°17.096 2°37.608 -999 -999 -999 -999 -999
2008-06-13 05:29:35 51°17.097 2°37.61 -999 -999 -999 -999 -999
2008-06-13 05:29:39 51°17.098 2°37.612 -999 -999 -999 -999 -999
2008-06-13 05:29:45 51°17.1 2°37.616 -999 -999 -999 -999 -999
2008-06-13 05:29:49 51°17.101 2°37.618 -999 -999 -999 -999 -999
2008-06-13 05:29:55 51°17.102 2°37.622 -999 -999 -999 -999 -999
2008-06-13 05:29:59 51°17.103 2°37.624 -999 -999 -999 -999 -999
2008-06-13 05:30:05 51°17.105 2°37.628 -999 -999 -999 -999 -999
2008-06-13 05:30:09 51°17.106 2°37.632 -999 -999 -999 -999 -999
2008-06-13 05:30:15 51°17.109 2°37.637 -999 -999 -999 -999 -999
2008-06-13 05:30:19 51°17.112 2°37.641 -999 -999 -999 -999 -999
2008-06-13 05:30:25 51°17.117 2°37.646 -999 -999 -999 -999 -999
2008-06-13 05:30:29 51°17.121 2°37.649 -999 -999 -999 -999 -999
2008-06-13 05:30:35 51°17.126 2°37.651 -999 -999 -999 -999 -999
2008-06-13 05:30:39 51°17.13 2°37.652 -999 -999 -999 -999 -999
2008-06-13 05:30:45 51°17.135 2°37.652 -999 -999 -999 -999 -999
2008-06-13 05:30:49 51°17.138 2°37.652 -999 -999 -999 -999 -999
2008-06-13 05:30:55 51°17.143 2°37.652 -999 -999 -999 -999 -999
2008-06-13 05:30:59 51°17.146 2°37.652 -999 -999 -999 -999 -999
2008-06-13 05:31:05 51°17.15 2°37.652 -999 -999 -999 -999 -999
2008-06-13 05:31:10 51°17.153 2°37.653 -999 -999 -999 -999 -999
2008-06-13 05:31:15 51°17.157 2°37.653 -999 -999 -999 -999 -999
2008-06-13 05:31:19 51°17.159 2°37.655 -999 -999 -999 -999 -999
2008-06-13 05:31:25 51°17.163 2°37.657 -999 -999 -999 -999 -999
2008-06-13 05:31:29 51°17.164 2°37.659 -999 -999 -999 -999 -999
2008-06-13 05:31:35 51°17.167 2°37.662 -999 -999 -999 -999 -999
2008-06-13 05:31:39 51°17.169 2°37.666 -999 -999 -999 -999 -999
2008-06-13 05:31:45 51°17.172 2°37.67 -999 -999 -999 -999 -999
2008-06-13 05:31:49 51°17.173 2°37.673 -999 -999 -999 -999 -999
2008-06-13 05:31:55 51°17.175 2°37.677 -999 -999 -999 -999 -999
2008-06-13 05:31:59 51°17.176 2°37.68 -999 -999 -999 -999 -999
2008-06-13 05:32:05 51°17.177 2°37.683 -999 -999 -999 -999 -999
2008-06-13 05:32:09 51°17.178 2°37.686 -999 -999 -999 -999 -999
2008-06-13 05:32:15 51°17.178 2°37.689 -999 -999 -999 -999 -999
2008-06-13 05:32:19 51°17.178 2°37.69 -999 -999 -999 -999 -999
2008-06-13 05:32:25 51°17.178 2°37.693 -999 -999 -999 -999 -999
2008-06-13 05:32:29 51°17.178 2°37.693 -999 -999 -999 -999 -999
2008-06-13 05:32:35 51°17.177 2°37.695 -999 -999 -999 -999 -999
2008-06-13 05:32:39 51°17.177 2°37.697 -999 -999 -999 -999 -999
2008-06-13 05:32:45 51°17.177 2°37.698 -999 -999 -999 -999 -999
2008-06-13 05:32:49 51°17.176 2°37.7 -999 -999 -999 -999 -999
2008-06-13 05:32:55 51°17.176 2°37.701 -999 -999 -999 -999 -999
2008-06-13 05:32:59 51°17.176 2°37.703 -999 -999 -999 -999 -999
2008-06-13 05:33:05 51°17.176 2°37.705 -999 -999 -999 -999 -999
2008-06-13 05:33:09 51°17.175 2°37.706 -999 -999 -999 -999 -999
2008-06-13 05:33:15 51°17.174 2°37.707 -999 -999 -999 -999 -999
2008-06-13 05:33:19 51°17.174 2°37.709 -999 -999 -999 -999 -999
2008-06-13 05:33:25 51°17.173 2°37.711 -999 -999 -999 -999 -999
2008-06-13 05:33:29 51°17.172 2°37.712 -999 -999 -999 -999 -999
2008-06-13 05:33:35 51°17.172 2°37.713 -999 -999 -999 -999 -999
2008-06-13 05:33:39 51°17.171 2°37.714 -999 -999 -999 -999 -999
2008-06-13 05:33:45 51°17.17 2°37.716 -999 -999 -999 -999 -999
2008-06-13 05:33:49 51°17.17 2°37.716 -999 -999 -999 -999 -999
2008-06-13 05:33:55 51°17.169 2°37.717 -999 -999 -999 -999 -999
2008-06-13 05:33:59 51°17.168 2°37.719 -999 -999 -999 -999 -999
2008-06-13 05:34:03 51°17.168 2°37.719 -999 -999 -999 -999 -999
2008-06-13 05:34:09 51°17.167 2°37.72 -999 -999 -999 -999 -999
2008-06-13 05:34:15 51°17.165 2°37.721 -999 -999 -999 -999 -999
2008-06-13 05:34:19 51°17.165 2°37.722 -999 -999 -999 -999 -999
2008-06-13 05:34:25 51°17.164 2°37.723 -999 -999 -999 -999 -999
2008-06-13 05:34:29 51°17.163 2°37.723 -999 -999 -999 -999 -999
2008-06-13 05:34:35 51°17.162 2°37.725 -999 -999 -999 -999 -999
2008-06-13 05:34:39 51°17.161 2°37.725 -999 -999 -999 -999 -999
2008-06-13 05:34:45 51°17.16 2°37.726 -999 -999 -999 -999 -999
2008-06-13 05:34:49 51°17.159 2°37.727 -999 -999 -999 -999 -999
2008-06-13 05:34:55 51°17.158 2°37.728 -999 -999 -999 -999 -999
2008-06-13 05:34:59 51°17.157 2°37.728 -999 -999 -999 -999 -999
2008-06-13 05:35:05 51°17.156 2°37.729 -999 -999 -999 -999 -999
2008-06-13 05:35:09 51°17.155 2°37.729 -999 -999 -999 -999 -999
2008-06-13 05:35:15 51°17.154 2°37.73 -999 -999 -999 -999 -999
2008-06-13 05:35:19 51°17.153 2°37.731 -999 -999 -999 -999 -999
2008-06-13 05:35:25 51°17.152 2°37.732 -999 -999 -999 -999 -999
2008-06-13 05:35:29 51°17.151 2°37.731 -999 -999 -999 -999 -999
2008-06-13 05:35:35 51°17.15 2°37.732 -999 -999 -999 -999 -999
2008-06-13 05:35:39 51°17.149 2°37.733 -999 -999 -999 -999 -999
2008-06-13 05:35:45 51°17.148 2°37.734 -999 -999 -999 -999 -999
2008-06-13 05:35:49 51°17.147 2°37.734 -999 -999 -999 -999 -999
2008-06-13 05:35:55 51°17.145 2°37.735 -999 -999 -999 -999 -999
2008-06-13 05:35:59 51°17.144 2°37.735 -999 -999 -999 -999 -999
2008-06-13 05:36:05 51°17.143 2°37.736 -999 -999 -999 -999 -999